Probability
0 0 0 0 0 0 0 0 0 0 0 0 0 0 0 0 0 0 0 0 0 0 0 0 0 0 0 0 0 0 0 0 0 0 0 0 0 0 0 0 0 0 0 0
0 0 0 0 0 0 0 0 0 0 0 0 0 0 0 0 0 0 0 0 0 0 0 0 0 0 0 0 0 0 0 0 0 0 0 0 0 0 0 0 0 0 0 0
0 0 0 0 0 0 0 0 0 0 0 0 0 0 0 0 0 0 0 0 0 0 0 0 0 0 0 0 0 0 0 0 0 0 0 0 0 0 0 0 0 0 0 0
0 0 0 0 0 0 0 0 0 0 0 0 0 0 0 0 0 0 0 0 0 0 0 0 0 0 0 0 0 0 0 0 0 0 0 0 0 0 0 0 0 0 0 0
0 0 0 0 0 0 0 0 0 0 0 0 0 0 0 0 0 0 0 0 0 0 0 0 0 0 0 0 0 0 0 0 0 0 0 0 0 0 0 0 0 0 0 0
0 0 0 0 0 0 0 0 0 0 0 0 0 0 0 0 0 0 0 0 0 0 0 0 0 0 0 0 0 0 0 0 0 0 0 0 0 0 0 0 0 0 0 0
0 0 0 0 0 0 0 0 0 0 0 0 0 0 0 0 0 0 0 0 0 0 0 0 0 0 0 0 0 0 0 0 0 0 0 0 0 0 0 0 0 0 0 0
0 0 0 0 0 0 0 0 0 0 0 0 0 0 0 0 0 0 0 0 0 0 0 0 0 0 0 0 0 0 0 0 0 0 0 0 0 0 0 0 0 0 0 0
0 0 0 0 0 0 0 0 0 0 0 0 0 0 0 0 0 0 0 0 0 0 0 0 0 0 0 0 0 0 0 0 0 0 0 0 0 0 0 0 0 0 0 0
0 0 0 0 0 0 0 0 0 0 0 0 0 0 0 0 0 0 0 0 0 0 0 0 0 0 0 0 0 0 0 0 0 0 0 0 0 0 0 0 0 0 0 0
0 0 0 0 0 0 0 0 0 0 0 0 0 0 0 0 0 0 0 0 0 0 0 0 0 0 0 0 0 0 0 0 0 0 0 0 0 0 0 0 0 0 0 0
0 0 0 0 0 0 0 0 0 0 0 0 0 0 0 0 0 0 0 0 0 0 0 0 0 0 0 0 0 0 0 0 0 0 0 0 0 0 0 0 0 0 0 0
0 0 0 0 0 0 0 0 0 0 0 0 0 0 0 0 0 0 0 0 0 0 0 0 0 0 0 0 0 0 0 0 0 0 0 0 0 0 0 0 0 0 0 0
0 0 0 0 0 0 0 0 0 0 0 0 0 0 0 0 0 0 0 0 0 0 0 0 0 0 0 0 0 0 0 0 0 0 0 0 0 0 0 0 0 0 0 0
0 0 0 0 0 0 0 0 0 0 0 0 0 0 0 0 0 0 0 0 0 0 0 0 0 0 0 0 0 0 0 0 0 0 0 0 0 0 0 0 0 0 0 0
0 0 0 0 0 0 0 0 0 0 0 0 0 0 0 0 0 0 0 0 0 0 0 0 0 0 0 0 0 0 0 0 0 0 0 0 0 0 0 0 0 0 0 0
0 0 0 0 0 0 0 0 0 0 0 0 0 0 0 0 0 0 0 0 0 0 0 0 0 0 0 0 0 0 0 0 0 0 0 0 0 0 0 0 0 0 0 0
0 0 0 0 0 0 0 0 0 0 0 0 0 0 0 0 0 0 0 0 0 0 0 0 0 0 0 0 0 0 0 0 0 0 0 0 0 0 0 0 0 0 0 0
0 0 0 0 0 0 0 0 0 0 0 0 0 0 0 0 0 0 0 0 0 0 0 0 0 0 0 0 0 0 0 0 0 0 0 0 0 0 0 0 0 0 0 0
0 0 0 0 0 0 0 0 0 0 0 0 0 0 0 0 0 0 0 0 0 0 0 0 0 0 0 0 0 0 0 0 0 0 0 0 0 0 0 0 0 0 0 0
0 0 0 0 0 0 0 0 0 0 0 0 0 0 0 0 0 0 0 0 0 0 0 0 0 0 0 0 0 0 0 0 0 0 0 0 0 0 0 0 0 0 0 0
0 0 0 0 0 0 0 0 0 0 0 0 0 0 0 0 0 0 0 0 0 0 0 0 0 0 0 0 0 0 0 0 0 0 0 0 0 0 0 0 0 0 0 0
0 0 0 0 0 0 0 0 0 0 0 0 0 0 0 0 0 0 0 0 0 0 0 0 0 0 0 0 0 0 0 0 0 0 0 0 0 0 0 0 0 0 0 0
0 0 0 0 0 0 0 0 0 0 0 0 0 0 0 0 0 0 0 0 0 0 0 0 0 0 0 0 0 0 0 0 0 0 0 0 0 0 0 0 0 0 0 0
0 0 0 0 0 0 0 0 0 0 0 0 0 0 0 0 0 0 0 0 0 0 0 0 0 0 0 0 0 0 0 0 0 0 0 0 0 0 0 0 0 0 0 0
0 0 0 0 0 0 0 0 0 0 0 0 0 0 0 0 0 0 0 0 0 0 0 0 0 0 0 0 0 0 0 0 0 0 0 0 0 0 0 0 0 0 0 0
Wind_Speed
1 3 5 6 6 4 4 6 8 6 3 5 10 12 10 6 6 7 6 5 5 4 3 2 2 2 1 1 0 1 2 2 2 2 2 3 3 3 3 3 3 4 4 5
3 5 5 3 3 4 5 8 9 6 2 5 9 13 10 7 7 7 7 6 5 3 2 1 1 2 1 1 0 0 1 1 2 2 2 2 2 2 2 2 3 3 4 4
6 1 2 3 4 5 7 9 8 6 5 4 8 10 7 5 5 5 5 5 4 4 3 1 1 1 1 1 1 1 1 1 2 2 1 2 2 2 2 2 2 3 3 4
4 1 2 3 5 6 7 5 6 5 6 4 3 8 6 4 4 4 4 4 3 3 2 2 1 1 1 1 1 1 1 1 2 2 2 4 4 3 3 2 2 2 3 4
3 2 3 5 4 5 2 1 3 5 6 7 6 8 7 3 5 5 3 3 2 2 2 2 2 2 1 1 1 1 1 1 2 2 3 4 3 3 2 2 3 3 2 3
2 1 3 2 1 2 2 1 0 2 4 8 7 8 8 4 5 4 2 1 1 1 1 2 1 1 1 1 1 1 1 1 1 2 3 3 3 3 3 3 3 3 2 2
3 2 1 1 1 2 3 2 2 3 4 6 3 7 9 4 3 3 3 3 2 1 1 1 1 1 1 1 1 0 1 0 1 2 2 2 3 3 3 3 3 3 2 2
4 4 4 3 3 4 5 5 4 5 5 3 3 8 5 2 2 3 3 2 2 2 2 2 2 2 2 2 1 1 1 1 1 1 1 1 1 2 2 3 2 3 3 2
5 4 1 1 1 3 5 5 2 1 1 5 6 6 6 3 3 2 1 1 2 2 2 2 2 2 2 2 2 2 2 1 1 1 1 1 1 1 1 1 2 2 2 2
3 4 2 1 1 1 2 3 3 4 4 6 5 6 5 3 3 2 1 2 2 2 2 2 2 2 2 2 2 1 2 1 1 1 1 0 0 0 0 0 1 1 2 2
3 4 2 2 6 6 4 5 4 4 4 5 5 5 2 4 3 2 2 2 2 2 2 2 2 2 2 1 1 1 1 1 1 1 1 0 0 0 0 0 0 0 1 2
4 3 4 5 1 3 5 6 7 5 5 4 5 6 1 2 2 2 2 2 2 3 3 2 2 1 1 1 1 1 1 1 1 1 1 1 0 1 1 0 0 0 1 1
5 4 3 2 3 3 5 5 6 3 2 5 7 8 1 2 3 3 3 3 3 3 3 2 2 2 1 2 1 1 1 1 1 1 1 1 1 1 0 0 0 0 0 1
2 5 7 9 5 4 6 7 8 7 6 8 12 13 9 8 7 7 6 5 4 3 3 2 2 2 2 2 2 2 1 1 1 1 1 1 1 1 1 0 0 0 0 1
3 5 6 8 7 6 9 11 12 14 13 12 14 15 15 12 10 8 6 5 4 4 4 4 3 3 3 2 2 2 2 1 1 1 1 1 1 1 0 0 0 0 0 0
3 4 3 6 6 7 11 14 16 17 17 18 18 19 13 10 7 7 6 5 5 5 5 5 4 4 3 3 3 2 2 2 2 2 2 2 1 1 1 0 0 0 0 0
4 4 5 7 4 4 13 15 17 15 15 14 19 17 7 8 8 7 6 6 6 6 6 5 5 4 4 4 3 3 3 2 3 2 2 2 2 1 1 1 1 1 1 1
7 6 4 4 3 14 10 3 10 14 15 16 15 11 8 9 7 5 4 6 6 6 6 5 4 4 3 3 3 2 2 3 3 3 2 2 2 2 1 1 1 1 1 1
9 8 5 5 9 13 10 6 7 9 12 11 14 11 8 4 4 5 3 4 5 5 5 4 3 4 3 3 2 2 2 2 2 3 3 3 3 2 2 2 2 2 1 1
5 6 6 6 8 11 6 2 4 4 10 5 8 8 5 3 4 3 1 3 4 4 3 3 2 2 3 2 3 3 3 3 4 3 3 3 3 3 3 3 2 2 1 2
6 7 10 11 11 12 5 3 6 7 6 1 4 5 5 5 5 3 3 3 3 3 3 2 2 2 3 2 3 3 3 4 4 2 2 3 3 3 3 2 2 1 1 1
10 9 10 8 11 12 4 7 8 4 2 0 2 3 4 4 4 4 4 4 4 3 3 2 2 2 2 3 3 4 5 4 2 2 2 3 3 2 2 2 2 1 2 2
10 9 7 10 9 2 4 5 3 2 3 3 3 3 4 5 5 5 5 5 4 4 3 2 2 3 3 3 4 5 4 2 2 2 2 2 2 2 2 2 2 2 2 2
7 4 6 8 9 5 5 4 4 4 3 3 3 3 4 5 5 5 5 4 4 4 3 3 3 3 4 3 4 5 4 3 3 3 3 2 2 2 2 2 2 3 3 3
7 7 7 9 7 5 6 6 5 3 2 3 3 3 4 5 5 5 5 4 4 4 4 3 3 4 5 4 4 4 3 3 4 3 3 3 3 3 3 3 3 3 3 4
7 9 10 10 7 6 6 3 3 4 4 4 4 4 4 4 5 5 5 4 4 4 4 4 5 5 5 4 4 3 3 3 4 4 3 3 3 3 3 2 2 3 4 4
Wind_Direction
121 192 213 218 224 265 260 257 268 275 300 274 262 270 273 271 262 260 262 265 267 275 294 325 348 360 354 347 230 195 194 184 172 177 192 197 204 205 208 205 203 200 195 192
174 225 239 233 220 234 244 257 268 278 294 272 278 276 272 258 251 253 256 260 268 273 276 325 357 13 12 2 343 165 191 189 199 209 211 217 202 202 207 198 199 202 197 196
216 225 185 187 209 231 244 249 263 280 301 257 284 269 248 241 243 251 253 252 256 259 262 271 322 342 352 348 305 242 221 214 220 214 196 180 176 171 191 198 205 207 206 200
234 239 187 217 233 231 251 253 264 270 276 271 280 284 257 237 243 242 244 246 254 254 253 255 270 299 310 305 299 263 226 213 215 203 197 197 204 202 210 206 206 208 205 203
229 214 214 229 237 223 256 328 257 258 254 267 238 256 265 227 243 244 240 245 262 271 263 260 269 281 297 306 297 277 239 223 213 207 203 205 216 215 204 195 199 199 195 198
264 252 242 237 303 211 151 104 323 230 233 251 235 238 266 231 234 241 235 251 280 312 293 293 301 302 299 320 328 315 246 229 215 200 193 202 207 207 194 197 197 199 198 198
245 230 204 186 145 161 188 196 241 233 225 244 209 237 259 260 252 251 265 268 284 292 263 263 267 274 280 287 287 286 233 239 249 212 197 206 215 203 201 202 200 199 203 209
220 235 194 196 209 196 207 217 220 245 252 270 224 243 260 294 298 279 275 273 281 291 276 262 255 252 255 262 264 251 227 218 223 229 211 189 206 206 208 207 208 207 213 215
218 237 117 230 289 192 186 214 259 244 278 266 245 259 279 235 251 256 260 274 287 303 299 281 273 257 253 259 259 253 241 235 222 227 197 161 180 193 216 201 207 214 218 215
209 236 256 267 211 241 251 175 181 211 236 252 261 256 258 245 247 257 269 276 300 312 309 299 287 279 271 272 274 261 247 239 242 225 207 117 142 189 117 170 192 202 205 193
208 212 230 216 215 207 174 189 211 216 242 248 266 261 253 242 233 247 262 268 277 287 296 293 290 286 279 276 267 257 246 235 226 222 193 143 91 82 83 73 25 228 200 189
199 212 237 236 266 304 234 218 198 217 228 236 263 272 49 264 284 269 273 270 263 270 281 286 289 295 281 263 256 257 262 245 229 208 177 175 143 93 88 70 31 57 190 188
171 186 222 238 206 199 225 223 216 221 214 220 237 261 67 297 295 282 274 287 283 272 276 278 284 282 273 265 260 255 248 247 224 182 166 170 168 142 137 106 64 78 96 167
202 206 220 240 252 197 220 222 210 200 222 236 239 260 271 271 280 290 290 291 294 286 273 270 277 276 265 257 254 256 248 225 203 191 182 183 191 188 190 156 114 128 154 154
199 229 234 256 266 250 244 236 222 222 229 239 253 256 265 270 276 279 278 281 289 284 275 267 267 269 263 256 252 248 243 227 210 207 205 213 213 203 190 140 117 120 147 150
211 228 234 255 252 257 261 249 237 236 239 245 259 264 268 272 275 270 264 264 271 276 273 267 261 260 254 246 247 237 236 235 228 227 229 220 205 191 197 201 157 138 220 175
207 200 225 256 263 268 256 238 228 229 229 232 246 257 267 264 260 258 257 258 263 269 270 265 261 257 253 243 231 228 226 225 227 235 237 222 213 215 221 207 201 211 228 215
200 205 225 246 228 243 251 213 222 231 239 234 245 260 258 260 270 271 261 262 267 272 274 271 265 264 257 240 230 228 218 215 222 236 242 235 226 225 222 212 224 234 234 229
211 201 210 218 242 262 267 227 205 220 249 236 241 252 261 269 272 258 248 259 267 274 277 279 272 261 253 235 217 205 213 218 226 240 248 244 234 228 224 226 232 237 228 234
206 206 210 217 235 247 258 184 188 205 254 229 221 233 236 205 243 269 325 282 273 279 283 288 284 259 240 224 199 201 212 221 235 243 247 246 237 233 232 232 236 243 235 237
188 205 218 226 241 258 260 179 165 208 255 179 202 213 202 215 250 307 307 287 275 280 287 287 272 252 237 213 199 213 223 235 244 246 247 244 239 242 243 240 237 230 229 229
198 202 210 213 230 247 170 164 200 240 26 99 210 214 224 248 273 286 291 287 283 290 297 296 281 270 250 215 209 227 239 246 241 234 240 246 247 248 243 237 234 224 219 226
216 213 210 211 228 276 169 205 241 276 261 271 260 250 245 259 267 277 285 286 285 284 288 284 275 275 269 241 226 237 249 245 230 226 239 249 254 253 243 232 228 227 223 228
233 230 230 246 252 252 244 256 272 265 263 271 266 266 257 260 268 269 277 283 284 284 287 288 278 271 274 263 248 249 251 234 214 219 230 236 239 245 245 240 230 228 227 231
222 204 226 249 261 267 249 244 254 260 272 279 274 264 260 260 264 264 268 272 279 287 288 279 273 273 277 278 266 263 251 217 216 222 226 230 235 237 239 243 242 240 243 238
216 214 222 240 232 236 253 250 248 255 266 273 278 282 276 259 265 268 268 270 273 278 284 281 279 276 276 276 274 273 259 225 216 225 229 228 229 233 235 237 262 271 262 267